Year,Month,Day,Hour,Minute,Value (Times are PST for temperature in C)
2015,08,28,00,00,19.30
2015,08,28,00,01,19.30
2015,08,28,00,02,19.30
2015,08,28,00,03,19.30
2015,08,28,00,04,19.20
2015,08,28,00,05,19.20
2015,08,28,00,06,19.20
2015,08,28,00,07,19.20
2015,08,28,00,08,19.10
2015,08,28,00,09,19.10
2015,08,28,00,10,19.10
2015,08,28,00,11,19.00
2015,08,28,00,12,19.00
2015,08,28,00,13,19.00
2015,08,28,00,14,18.90
2015,08,28,00,15,18.90
2015,08,28,00,16,18.90
2015,08,28,00,17,18.90
2015,08,28,00,18,18.90
2015,08,28,00,19,18.90
2015,08,28,00,20,18.90
2015,08,28,00,21,18.90
2015,08,28,00,22,18.90
2015,08,28,00,23,18.90
2015,08,28,00,24,18.90
2015,08,28,00,25,18.90
2015,08,28,00,26,18.90
2015,08,28,00,27,18.90
2015,08,28,00,28,18.90
2015,08,28,00,29,18.90
2015,08,28,00,30,18.80
2015,08,28,00,31,18.80
2015,08,28,00,32,18.80
2015,08,28,00,33,18.80
2015,08,28,00,34,18.80
2015,08,28,00,35,18.80
2015,08,28,00,36,18.80
2015,08,28,00,37,18.80
2015,08,28,00,38,18.70
2015,08,28,00,39,18.70
2015,08,28,00,40,18.70
2015,08,28,00,41,18.70
2015,08,28,00,42,18.60
2015,08,28,00,43,18.60
2015,08,28,00,44,18.60
2015,08,28,00,45,18.60
2015,08,28,00,46,18.60
2015,08,28,00,47,18.50
2015,08,28,00,48,18.50
2015,08,28,00,49,18.50
2015,08,28,00,50,18.40
2015,08,28,00,51,18.40
2015,08,28,00,52,18.30
2015,08,28,00,53,18.30
2015,08,28,00,54,18.30
2015,08,28,00,55,18.20
2015,08,28,00,56,18.20
2015,08,28,00,57,18.20
2015,08,28,00,58,18.20
2015,08,28,00,59,18.20
2015,08,28,01,00,18.20
2015,08,28,01,01,18.20
2015,08,28,01,02,18.10
2015,08,28,01,03,18.10
2015,08,28,01,04,18.10
2015,08,28,01,05,18.00
2015,08,28,01,06,17.90
2015,08,28,01,07,17.90
2015,08,28,01,08,17.90
2015,08,28,01,09,17.80
2015,08,28,01,10,17.80
2015,08,28,01,11,17.80
2015,08,28,01,12,17.80
2015,08,28,01,13,17.80
2015,08,28,01,14,17.80
2015,08,28,01,15,17.80
2015,08,28,01,16,17.80
2015,08,28,01,17,17.80
2015,08,28,01,18,17.80
2015,08,28,01,19,17.80
2015,08,28,01,20,17.80
2015,08,28,01,21,17.80
2015,08,28,01,22,17.60
2015,08,28,01,23,17.60
2015,08,28,01,24,17.50
2015,08,28,01,25,17.50
2015,08,28,01,26,17.40
2015,08,28,01,27,17.40
2015,08,28,01,28,17.40
2015,08,28,01,29,17.40
2015,08,28,01,30,17.30
2015,08,28,01,31,17.20
2015,08,28,01,32,17.10
2015,08,28,01,33,17.10
2015,08,28,01,34,17.00
2015,08,28,01,35,17.00
2015,08,28,01,36,16.90
2015,08,28,01,37,16.90
2015,08,28,01,38,16.80
2015,08,28,01,39,16.80
2015,08,28,01,40,16.80
2015,08,28,01,41,16.80
2015,08,28,01,42,16.80
2015,08,28,01,43,16.80
2015,08,28,01,44,16.70
2015,08,28,01,45,16.70
2015,08,28,01,46,16.70
2015,08,28,01,47,16.60
2015,08,28,01,48,16.60
2015,08,28,01,49,16.60
2015,08,28,01,50,16.50
2015,08,28,01,51,16.50
2015,08,28,01,52,16.50
2015,08,28,01,53,16.40
2015,08,28,01,54,16.40
2015,08,28,01,55,16.40
2015,08,28,01,56,16.30
2015,08,28,01,57,16.30
2015,08,28,01,58,16.30
2015,08,28,01,59,16.30
2015,08,28,02,00,16.30
2015,08,28,02,01,16.30
2015,08,28,02,02,16.30
2015,08,28,02,03,16.20
2015,08,28,02,04,16.20
2015,08,28,02,05,16.20
2015,08,28,02,06,16.20
2015,08,28,02,07,16.10
2015,08,28,02,08,16.10
2015,08,28,02,09,16.10
2015,08,28,02,10,16.00
2015,08,28,02,11,16.00
2015,08,28,02,12,16.00
2015,08,28,02,13,16.00
2015,08,28,02,14,15.90
2015,08,28,02,15,15.80
2015,08,28,02,16,15.70
2015,08,28,02,17,15.70
2015,08,28,02,18,15.60
2015,08,28,02,19,15.50
2015,08,28,02,20,15.40
2015,08,28,02,21,15.30
2015,08,28,02,22,15.30
2015,08,28,02,23,15.20
2015,08,28,02,24,15.20
2015,08,28,02,25,15.10
2015,08,28,02,26,15.00
2015,08,28,02,27,15.00
2015,08,28,02,28,14.90
2015,08,28,02,29,14.90
2015,08,28,02,30,14.80
2015,08,28,02,31,14.80
2015,08,28,02,32,14.70
2015,08,28,02,33,14.70
2015,08,28,02,34,14.70
2015,08,28,02,35,14.60
2015,08,28,02,36,14.60
2015,08,28,02,37,14.60
2015,08,28,02,38,14.60
2015,08,28,02,39,14.60
2015,08,28,02,40,14.60
2015,08,28,02,41,14.50
2015,08,28,02,42,14.60
2015,08,28,02,43,14.60
2015,08,28,02,44,14.50
2015,08,28,02,45,14.50
2015,08,28,02,46,14.50
2015,08,28,02,47,14.50
2015,08,28,02,48,14.50
2015,08,28,02,49,14.50
2015,08,28,02,50,14.50
2015,08,28,02,51,14.50
2015,08,28,02,52,14.50
2015,08,28,02,53,14.50
2015,08,28,02,54,14.50
2015,08,28,02,55,14.40
2015,08,28,02,56,14.40
2015,08,28,02,57,14.40
2015,08,28,02,58,14.40
2015,08,28,02,59,14.40
2015,08,28,03,00,14.40
2015,08,28,03,01,14.40
2015,08,28,03,02,14.30
2015,08,28,03,03,14.30
2015,08,28,03,04,14.20
2015,08,28,03,05,14.20
2015,08,28,03,06,14.20
2015,08,28,03,07,14.10
2015,08,28,03,08,14.10
2015,08,28,03,09,14.10
2015,08,28,03,10,14.10
2015,08,28,03,11,14.00
2015,08,28,03,12,14.00
2015,08,28,03,13,14.00
2015,08,28,03,14,14.00
2015,08,28,03,15,13.90
2015,08,28,03,16,13.90
2015,08,28,03,17,13.90
2015,08,28,03,18,13.90
2015,08,28,03,19,13.90
2015,08,28,03,20,13.80
2015,08,28,03,21,13.80
2015,08,28,03,22,13.80
2015,08,28,03,23,13.80
2015,08,28,03,24,13.80
2015,08,28,03,25,13.80
2015,08,28,03,26,13.80
2015,08,28,03,27,13.80
2015,08,28,03,28,13.80
2015,08,28,03,29,13.80
2015,08,28,03,30,13.80
2015,08,28,03,31,13.80
2015,08,28,03,32,13.90
2015,08,28,03,33,13.90
2015,08,28,03,34,13.90
2015,08,28,03,35,13.90
2015,08,28,03,36,13.90
2015,08,28,03,37,13.80
2015,08,28,03,38,13.80
2015,08,28,03,39,13.90
2015,08,28,03,40,13.80
2015,08,28,03,41,13.80
2015,08,28,03,42,13.80
2015,08,28,03,43,13.80
2015,08,28,03,44,13.80
2015,08,28,03,45,13.70
2015,08,28,03,46,13.70
2015,08,28,03,47,13.70
2015,08,28,03,48,13.70
2015,08,28,03,49,13.70
2015,08,28,03,50,13.70
2015,08,28,03,51,13.80
2015,08,28,03,52,13.80
2015,08,28,03,53,13.80
2015,08,28,03,54,13.80
2015,08,28,03,55,13.80
2015,08,28,03,56,13.80
2015,08,28,03,57,13.80
2015,08,28,03,58,13.80
2015,08,28,03,59,13.80
2015,08,28,04,00,13.80
2015,08,28,04,01,13.80
2015,08,28,04,02,13.80
2015,08,28,04,03,13.80
2015,08,28,04,04,13.70
2015,08,28,04,05,13.80
2015,08,28,04,06,13.80
2015,08,28,04,07,13.80
2015,08,28,04,08,13.80
2015,08,28,04,09,13.80
2015,08,28,04,10,13.80
2015,08,28,04,11,13.80
2015,08,28,04,12,13.80
2015,08,28,04,13,13.80
2015,08,28,04,14,13.80
2015,08,28,04,15,13.80
2015,08,28,04,16,13.80
2015,08,28,04,17,13.80
2015,08,28,04,18,13.80
2015,08,28,04,19,13.80
2015,08,28,04,20,13.80
2015,08,28,04,21,13.90
2015,08,28,04,22,13.90
2015,08,28,04,23,13.90
2015,08,28,04,24,13.90
2015,08,28,04,25,13.90
2015,08,28,04,26,13.90
2015,08,28,04,27,13.90
2015,08,28,04,28,14.00
2015,08,28,04,29,14.00
2015,08,28,04,30,14.00
2015,08,28,04,31,14.00
2015,08,28,04,32,13.90
2015,08,28,04,33,13.90
2015,08,28,04,34,13.90
2015,08,28,04,35,13.90
2015,08,28,04,36,13.90
2015,08,28,04,37,13.90
2015,08,28,04,38,13.90
2015,08,28,04,39,13.90
2015,08,28,04,40,13.90
2015,08,28,04,41,13.90
2015,08,28,04,42,13.90
2015,08,28,04,43,13.80
2015,08,28,04,44,13.90
2015,08,28,04,45,13.80
2015,08,28,04,46,13.80
2015,08,28,04,47,13.80
2015,08,28,04,48,13.80
2015,08,28,04,49,13.80
2015,08,28,04,50,13.70
2015,08,28,04,51,13.70
2015,08,28,04,52,13.70
2015,08,28,04,53,13.70
2015,08,28,04,54,13.70
2015,08,28,04,55,13.60
2015,08,28,04,56,13.60
2015,08,28,04,57,13.60
2015,08,28,04,58,13.60
2015,08,28,04,59,13.60
2015,08,28,05,00,13.60
2015,08,28,05,01,13.60
2015,08,28,05,02,13.60
2015,08,28,05,03,13.60
2015,08,28,05,04,13.60
2015,08,28,05,05,13.70
2015,08,28,05,06,13.70
2015,08,28,05,07,13.70
2015,08,28,05,08,13.70
2015,08,28,05,09,13.70
2015,08,28,05,10,13.70
2015,08,28,05,11,13.70
2015,08,28,05,12,13.80
2015,08,28,05,13,13.80
2015,08,28,05,14,13.80
2015,08,28,05,15,13.80
2015,08,28,05,16,13.80
2015,08,28,05,17,13.80
2015,08,28,05,18,13.90
2015,08,28,05,19,13.90
2015,08,28,05,20,13.90
2015,08,28,05,21,13.90
2015,08,28,05,22,14.00
2015,08,28,05,23,14.00
2015,08,28,05,24,14.00
2015,08,28,05,25,14.10
2015,08,28,05,26,14.10
2015,08,28,05,27,14.10
2015,08,28,05,28,14.20
2015,08,28,05,29,14.20
2015,08,28,05,30,14.20
2015,08,28,05,31,14.20
2015,08,28,05,32,14.20
2015,08,28,05,33,14.20
2015,08,28,05,34,14.20
2015,08,28,05,35,14.20
2015,08,28,05,36,14.20
2015,08,28,05,37,14.20
2015,08,28,05,38,14.20
2015,08,28,05,39,14.30
2015,08,28,05,40,14.30
2015,08,28,05,41,14.30
2015,08,28,05,42,14.30
2015,08,28,05,43,14.30
2015,08,28,05,44,14.30
2015,08,28,05,45,14.30
2015,08,28,05,46,14.30
2015,08,28,05,47,14.30
2015,08,28,05,48,14.30
2015,08,28,05,49,14.30
2015,08,28,05,50,14.40
2015,08,28,05,51,14.40
2015,08,28,05,52,14.40
2015,08,28,05,53,14.40
2015,08,28,05,54,14.40
2015,08,28,05,55,14.30
2015,08,28,05,56,14.30
2015,08,28,05,57,14.30
2015,08,28,05,58,14.30
2015,08,28,05,59,14.30
2015,08,28,06,00,14.30
2015,08,28,06,01,14.30
2015,08,28,06,02,14.30
2015,08,28,06,03,14.30
2015,08,28,06,04,14.30
2015,08,28,06,05,14.30
2015,08,28,06,06,14.30
2015,08,28,06,07,14.30
2015,08,28,06,08,14.40
2015,08,28,06,09,14.40
2015,08,28,06,10,14.40
2015,08,28,06,11,14.40
2015,08,28,06,12,14.40
2015,08,28,06,13,14.40
2015,08,28,06,14,14.40
2015,08,28,06,15,14.40
2015,08,28,06,16,14.40
2015,08,28,06,17,14.40
2015,08,28,06,18,14.50
2015,08,28,06,19,14.50
2015,08,28,06,20,14.50
2015,08,28,06,21,14.50
2015,08,28,06,22,14.50
2015,08,28,06,23,14.50
2015,08,28,06,24,14.50
2015,08,28,06,25,14.50
2015,08,28,06,26,14.50
2015,08,28,06,27,14.40
2015,08,28,06,28,14.40
2015,08,28,06,29,14.40
2015,08,28,06,30,14.40
2015,08,28,06,31,14.40
2015,08,28,06,32,14.40
2015,08,28,06,33,14.50
2015,08,28,06,34,14.50
2015,08,28,06,35,14.50
2015,08,28,06,36,14.50
2015,08,28,06,37,14.60
2015,08,28,06,38,14.60
2015,08,28,06,39,14.60
2015,08,28,06,40,14.60
2015,08,28,06,41,14.60
2015,08,28,06,42,14.70
2015,08,28,06,43,14.70
2015,08,28,06,44,14.70
2015,08,28,06,45,14.70
2015,08,28,06,46,14.70
2015,08,28,06,47,14.70
2015,08,28,06,48,14.70
2015,08,28,06,49,14.70
2015,08,28,06,50,14.70
2015,08,28,06,51,14.70
2015,08,28,06,52,14.80
2015,08,28,06,53,14.80
2015,08,28,06,54,14.80
2015,08,28,06,55,14.80
2015,08,28,06,56,14.80
2015,08,28,06,57,14.80
2015,08,28,06,58,14.80
2015,08,28,06,59,14.80
2015,08,28,07,00,14.80
2015,08,28,07,01,14.80
2015,08,28,07,02,14.80
2015,08,28,07,03,14.80
2015,08,28,07,04,14.80
2015,08,28,07,05,14.80
2015,08,28,07,06,14.80
2015,08,28,07,07,14.80
2015,08,28,07,08,14.90
2015,08,28,07,09,14.90
2015,08,28,07,10,14.90
2015,08,28,07,11,14.90
2015,08,28,07,12,14.90
2015,08,28,07,13,14.90
2015,08,28,07,14,14.90
2015,08,28,07,15,14.90
2015,08,28,07,16,14.90
2015,08,28,07,17,14.80
2015,08,28,07,18,14.80
2015,08,28,07,19,14.80
2015,08,28,07,20,14.80
2015,08,28,07,21,14.80
2015,08,28,07,22,14.80
2015,08,28,07,23,14.80
2015,08,28,07,24,14.80
2015,08,28,07,25,14.80
2015,08,28,07,26,14.80
2015,08,28,07,27,14.90
2015,08,28,07,28,14.90
2015,08,28,07,29,14.90
2015,08,28,07,30,15.00
2015,08,28,07,31,15.00
2015,08,28,07,32,15.00
2015,08,28,07,33,15.00
2015,08,28,07,34,15.00
2015,08,28,07,35,15.00
2015,08,28,07,36,15.00
2015,08,28,07,37,14.90
2015,08,28,07,38,14.90
2015,08,28,07,39,14.90
2015,08,28,07,40,15.00
2015,08,28,07,41,15.00
2015,08,28,07,42,15.00
2015,08,28,07,43,15.00
2015,08,28,07,44,15.10
2015,08,28,07,45,15.10
2015,08,28,07,46,15.00
2015,08,28,07,47,15.00
2015,08,28,07,48,14.90
2015,08,28,07,49,14.80
2015,08,28,07,50,14.80
2015,08,28,07,51,14.70
2015,08,28,07,52,14.70
2015,08,28,07,53,14.70
2015,08,28,07,54,14.70
2015,08,28,07,55,14.60
2015,08,28,07,56,14.60
2015,08,28,07,57,14.60
2015,08,28,07,58,14.60
2015,08,28,07,59,14.60
2015,08,28,08,00,14.60
2015,08,28,08,01,14.50
2015,08,28,08,02,14.50
2015,08,28,08,03,14.40
2015,08,28,08,04,14.30
2015,08,28,08,05,14.20
2015,08,28,08,06,14.10
2015,08,28,08,07,14.00
2015,08,28,08,08,13.90
2015,08,28,08,09,13.80
2015,08,28,08,10,13.70
2015,08,28,08,11,13.60
2015,08,28,08,12,13.60
2015,08,28,08,13,13.50
2015,08,28,08,14,13.40
2015,08,28,08,15,13.40
2015,08,28,08,16,13.40
2015,08,28,08,17,13.40
2015,08,28,08,18,13.30
2015,08,28,08,19,13.30
2015,08,28,08,20,13.30
2015,08,28,08,21,13.30
2015,08,28,08,22,13.30
2015,08,28,08,23,13.30
2015,08,28,08,24,13.30
2015,08,28,08,25,13.30
2015,08,28,08,26,13.30
2015,08,28,08,27,13.30
2015,08,28,08,28,13.30
2015,08,28,08,29,13.30
2015,08,28,08,30,13.30
2015,08,28,08,31,13.30
2015,08,28,08,32,13.30
2015,08,28,08,33,13.30
2015,08,28,08,34,13.30
2015,08,28,08,35,13.30
2015,08,28,08,36,13.30
2015,08,28,08,37,13.30
2015,08,28,08,38,13.30
2015,08,28,08,39,13.30
2015,08,28,08,40,13.40
2015,08,28,08,41,13.40
2015,08,28,08,42,13.40
2015,08,28,08,43,13.40
2015,08,28,08,44,13.50
2015,08,28,08,45,13.50
2015,08,28,08,46,13.50
2015,08,28,08,47,13.60
2015,08,28,08,48,13.60
2015,08,28,08,49,13.60
2015,08,28,08,50,13.70
2015,08,28,08,51,13.70
2015,08,28,08,52,13.60
2015,08,28,08,53,13.70
2015,08,28,08,54,13.70
2015,08,28,08,55,13.70
2015,08,28,08,56,13.70
2015,08,28,08,57,13.70
2015,08,28,08,58,13.70
2015,08,28,08,59,13.70
2015,08,28,09,00,13.70
2015,08,28,09,01,13.70
2015,08,28,09,02,13.70
2015,08,28,09,03,13.80
2015,08,28,09,04,13.80
2015,08,28,09,05,13.80
2015,08,28,09,06,13.80
2015,08,28,09,07,13.90
2015,08,28,09,08,13.80
2015,08,28,09,09,13.90
2015,08,28,09,10,13.90
2015,08,28,09,11,13.90
2015,08,28,09,12,13.90
2015,08,28,09,13,14.00
2015,08,28,09,14,14.00
2015,08,28,09,15,14.00
2015,08,28,09,16,14.10
2015,08,28,09,17,14.10
2015,08,28,09,18,14.10
2015,08,28,09,19,14.10
2015,08,28,09,20,14.10
2015,08,28,09,21,14.10
2015,08,28,09,22,14.10
2015,08,28,09,23,14.10
2015,08,28,09,24,14.10
2015,08,28,09,25,14.10
2015,08,28,09,26,14.10
2015,08,28,09,27,14.20
2015,08,28,09,28,14.20
2015,08,28,09,29,14.20
2015,08,28,09,30,14.30
2015,08,28,09,31,14.30
2015,08,28,09,32,14.30
2015,08,28,09,33,14.30
2015,08,28,09,34,14.30
2015,08,28,09,35,14.30
2015,08,28,09,36,14.30
2015,08,28,09,37,14.40
2015,08,28,09,38,14.40
2015,08,28,09,39,14.40
2015,08,28,09,40,14.40
2015,08,28,09,41,14.40
2015,08,28,09,42,14.40
2015,08,28,09,43,14.50
2015,08,28,09,44,14.50
2015,08,28,09,45,14.50
2015,08,28,09,46,14.50
2015,08,28,09,47,14.50
2015,08,28,09,48,14.60
2015,08,28,09,49,14.60
2015,08,28,09,50,14.60
2015,08,28,09,51,14.60
2015,08,28,09,52,14.60
2015,08,28,09,53,14.70
2015,08,28,09,54,14.70
2015,08,28,09,55,14.70
2015,08,28,09,56,14.70
2015,08,28,09,57,14.70
2015,08,28,09,58,14.70
2015,08,28,09,59,14.70
2015,08,28,10,00,14.70
2015,08,28,10,01,14.70
2015,08,28,10,02,14.70
2015,08,28,10,03,14.70
2015,08,28,10,04,14.70
2015,08,28,10,05,14.70
2015,08,28,10,06,14.70
2015,08,28,10,07,14.70
2015,08,28,10,08,14.80
2015,08,28,10,09,14.80
2015,08,28,10,10,14.80
2015,08,28,10,11,14.80
2015,08,28,10,12,14.80
2015,08,28,10,13,14.80
2015,08,28,10,14,14.90
2015,08,28,10,15,15.00
2015,08,28,10,16,15.00
2015,08,28,10,17,15.00
2015,08,28,10,18,15.00
2015,08,28,10,19,15.10
2015,08,28,10,20,15.10
2015,08,28,10,21,15.20
2015,08,28,10,22,15.30
2015,08,28,10,23,15.20
2015,08,28,10,24,15.20
2015,08,28,10,25,15.20
2015,08,28,10,26,15.20
2015,08,28,10,27,15.20
2015,08,28,10,28,15.20
2015,08,28,10,29,15.30
2015,08,28,10,30,15.30
2015,08,28,10,31,15.40
2015,08,28,10,32,15.50
2015,08,28,10,33,15.50
2015,08,28,10,34,15.60
2015,08,28,10,35,15.70
2015,08,28,10,36,15.70
2015,08,28,10,37,15.70
2015,08,28,10,38,15.70
2015,08,28,10,39,15.70
2015,08,28,10,40,15.70
2015,08,28,10,41,15.70
2015,08,28,10,42,15.70
2015,08,28,10,43,15.70
2015,08,28,10,44,15.70
2015,08,28,10,45,15.70
2015,08,28,10,46,15.70
2015,08,28,10,47,15.70
2015,08,28,10,48,15.80
2015,08,28,10,49,15.80
2015,08,28,10,50,15.90
2015,08,28,10,51,16.00
2015,08,28,10,52,16.10
2015,08,28,10,53,16.10
2015,08,28,10,54,16.20
2015,08,28,10,55,16.20
2015,08,28,10,56,16.20
2015,08,28,10,57,16.20
2015,08,28,10,58,16.20
2015,08,28,10,59,16.20
2015,08,28,11,00,16.20
2015,08,28,11,01,16.20
2015,08,28,11,02,16.20
2015,08,28,11,03,16.20
2015,08,28,11,04,16.20
2015,08,28,11,05,16.20
2015,08,28,11,06,16.20
2015,08,28,11,07,16.20
2015,08,28,11,08,16.20
2015,08,28,11,09,16.20
2015,08,28,11,10,16.20
2015,08,28,11,11,16.20
2015,08,28,11,12,16.20
2015,08,28,11,13,16.30
2015,08,28,11,14,16.30
2015,08,28,11,15,16.20
2015,08,28,11,16,16.20
2015,08,28,11,17,16.20
2015,08,28,11,18,16.10
2015,08,28,11,19,16.10
2015,08,28,11,20,16.10
2015,08,28,11,21,16.10
2015,08,28,11,22,16.00
2015,08,28,11,23,16.00
2015,08,28,11,24,16.00
2015,08,28,11,25,16.00
2015,08,28,11,26,16.00
2015,08,28,11,27,15.90
2015,08,28,11,28,15.90
2015,08,28,11,29,15.90
2015,08,28,11,30,15.90
2015,08,28,11,31,15.90
2015,08,28,11,32,15.90
2015,08,28,11,33,15.80
2015,08,28,11,34,15.70
2015,08,28,11,35,15.70
2015,08,28,11,36,15.70
2015,08,28,11,37,15.60
2015,08,28,11,38,15.60
2015,08,28,11,39,15.70
2015,08,28,11,40,15.70
2015,08,28,11,41,15.70
2015,08,28,11,42,15.70
2015,08,28,11,43,15.70
2015,08,28,11,44,15.70
2015,08,28,11,45,15.70
2015,08,28,11,46,15.80
2015,08,28,11,47,15.80
2015,08,28,11,48,15.80
2015,08,28,11,49,15.80
2015,08,28,11,50,15.70
2015,08,28,11,51,15.70
2015,08,28,11,52,15.70
2015,08,28,11,53,15.70
2015,08,28,11,54,15.70
2015,08,28,11,55,15.70
2015,08,28,11,56,15.60
2015,08,28,11,57,15.50
2015,08,28,11,58,15.50
2015,08,28,11,59,15.50
2015,08,28,12,00,15.40
2015,08,28,12,01,15.20
2015,08,28,12,02,15.20
2015,08,28,12,03,15.20
2015,08,28,12,04,15.20
2015,08,28,12,05,15.20
2015,08,28,12,06,15.20
2015,08,28,12,07,15.30
2015,08,28,12,08,15.30
2015,08,28,12,09,15.30
2015,08,28,12,10,15.30
2015,08,28,12,11,15.30
2015,08,28,12,12,15.30
2015,08,28,12,13,15.30
2015,08,28,12,14,15.30
2015,08,28,12,15,15.30
2015,08,28,12,16,15.30
2015,08,28,12,17,15.30
2015,08,28,12,18,15.40
2015,08,28,12,19,15.50
2015,08,28,12,20,15.60
2015,08,28,12,21,15.60
2015,08,28,12,22,15.60
2015,08,28,12,23,15.60
2015,08,28,12,24,15.60
2015,08,28,12,25,15.70
2015,08,28,12,26,15.70
2015,08,28,12,27,15.60
2015,08,28,12,28,15.60
2015,08,28,12,29,15.50
2015,08,28,12,30,15.50
2015,08,28,12,31,15.50
2015,08,28,12,32,15.50
2015,08,28,12,33,15.60
2015,08,28,12,34,15.60
2015,08,28,12,35,15.70
2015,08,28,12,36,15.70
2015,08,28,12,37,15.70
2015,08,28,12,38,15.60
2015,08,28,12,39,15.70
2015,08,28,12,40,15.70
2015,08,28,12,41,15.70
2015,08,28,12,42,15.70
2015,08,28,12,43,15.70
2015,08,28,12,44,15.70
2015,08,28,12,45,15.70
2015,08,28,12,46,15.70
2015,08,28,12,47,15.70
2015,08,28,12,48,15.70
2015,08,28,12,49,15.70
2015,08,28,12,50,15.70
2015,08,28,12,51,15.70
2015,08,28,12,52,15.70
2015,08,28,12,53,15.70
2015,08,28,12,54,15.60
2015,08,28,12,55,15.50
2015,08,28,12,56,15.40
2015,08,28,12,57,15.40
2015,08,28,12,58,15.30
2015,08,28,12,59,15.30
2015,08,28,13,00,15.30
2015,08,28,13,01,15.30
2015,08,28,13,02,15.30
2015,08,28,13,03,15.30
2015,08,28,13,04,15.30
2015,08,28,13,05,15.30
2015,08,28,13,06,15.30
2015,08,28,13,07,15.30
2015,08,28,13,08,15.30
2015,08,28,13,09,15.30
2015,08,28,13,10,15.30
2015,08,28,13,11,15.30
2015,08,28,13,12,15.30
2015,08,28,13,13,15.30
2015,08,28,13,14,15.40
2015,08,28,13,15,15.40
2015,08,28,13,16,15.50
2015,08,28,13,17,15.60
2015,08,28,13,18,15.60
2015,08,28,13,19,15.60
2015,08,28,13,20,15.60
2015,08,28,13,21,15.60
2015,08,28,13,22,15.60
2015,08,28,13,23,15.50
2015,08,28,13,24,15.50
2015,08,28,13,25,15.50
2015,08,28,13,26,15.50
2015,08,28,13,27,15.60
2015,08,28,13,28,15.60
2015,08,28,13,29,15.60
2015,08,28,13,30,15.70
2015,08,28,13,31,15.70
2015,08,28,13,32,15.70
2015,08,28,13,33,15.70
2015,08,28,13,34,15.70
2015,08,28,13,35,15.70
2015,08,28,13,36,15.80
2015,08,28,13,37,15.80
2015,08,28,13,38,15.90
2015,08,28,13,39,15.90
2015,08,28,13,40,15.80
2015,08,28,13,41,15.80
2015,08,28,13,42,15.80
2015,08,28,13,43,15.80
2015,08,28,13,44,15.90
2015,08,28,13,45,15.90
2015,08,28,13,46,16.00
2015,08,28,13,47,16.10
2015,08,28,13,48,16.10
2015,08,28,13,49,16.10
2015,08,28,13,50,16.10
2015,08,28,13,51,16.10
2015,08,28,13,52,16.00
2015,08,28,13,53,15.90
2015,08,28,13,54,15.90
2015,08,28,13,55,15.90
2015,08,28,13,56,15.90
2015,08,28,13,57,15.90
2015,08,28,13,58,15.90
2015,08,28,13,59,16.00
2015,08,28,14,00,16.00
2015,08,28,14,01,16.00
2015,08,28,14,02,16.10
2015,08,28,14,03,16.00
2015,08,28,14,04,15.90
2015,08,28,14,05,15.90
2015,08,28,14,06,15.80
2015,08,28,14,07,15.80
2015,08,28,14,08,15.70
2015,08,28,14,09,15.70
2015,08,28,14,10,15.70
2015,08,28,14,11,15.70
2015,08,28,14,12,15.80
2015,08,28,14,13,15.80
2015,08,28,14,14,15.80
2015,08,28,14,15,15.90
2015,08,28,14,16,15.80
2015,08,28,14,17,15.80
2015,08,28,14,18,15.80
2015,08,28,14,19,15.80
2015,08,28,14,20,15.80
2015,08,28,14,21,15.80
2015,08,28,14,22,15.90
2015,08,28,14,23,15.90
2015,08,28,14,24,15.90
2015,08,28,14,25,16.00
2015,08,28,14,26,16.00
2015,08,28,14,27,16.10
2015,08,28,14,28,16.20
2015,08,28,14,29,16.20
2015,08,28,14,30,16.20
2015,08,28,14,31,16.30
2015,08,28,14,32,16.30
2015,08,28,14,33,16.30
2015,08,28,14,34,16.30
2015,08,28,14,35,16.30
2015,08,28,14,36,16.20
2015,08,28,14,37,16.20
2015,08,28,14,38,16.20
2015,08,28,14,39,16.20
2015,08,28,14,40,16.30
2015,08,28,14,41,16.20
2015,08,28,14,42,16.20
2015,08,28,14,43,16.20
2015,08,28,14,44,16.20
2015,08,28,14,45,16.30
2015,08,28,14,46,16.30
2015,08,28,14,47,16.30
2015,08,28,14,48,16.30
2015,08,28,14,49,16.30
2015,08,28,14,50,16.30
2015,08,28,14,51,16.40
2015,08,28,14,52,16.40
2015,08,28,14,53,16.40
2015,08,28,14,54,16.40
2015,08,28,14,55,16.40
2015,08,28,14,56,16.40
2015,08,28,14,57,16.40
2015,08,28,14,58,16.50
2015,08,28,14,59,16.50
2015,08,28,15,00,16.60
2015,08,28,15,01,16.60
2015,08,28,15,02,16.60
2015,08,28,15,03,16.60
2015,08,28,15,04,16.60
2015,08,28,15,05,16.60
2015,08,28,15,06,16.60
2015,08,28,15,07,16.60
2015,08,28,15,08,16.60
2015,08,28,15,09,16.60
2015,08,28,15,10,16.70
2015,08,28,15,11,16.70
2015,08,28,15,12,16.80
2015,08,28,15,13,16.80
2015,08,28,15,14,16.90
2015,08,28,15,15,16.90
2015,08,28,15,16,17.00
2015,08,28,15,17,17.00
2015,08,28,15,18,17.00
2015,08,28,15,19,17.00
2015,08,28,15,20,17.10
2015,08,28,15,21,17.10
2015,08,28,15,22,17.10
2015,08,28,15,23,17.10
2015,08,28,15,24,17.20
2015,08,28,15,25,17.20
2015,08,28,15,26,17.30
2015,08,28,15,27,17.30
2015,08,28,15,28,17.30
2015,08,28,15,29,17.30
2015,08,28,15,30,17.30
2015,08,28,15,31,17.30
2015,08,28,15,32,17.30
2015,08,28,15,33,17.30
2015,08,28,15,34,17.30
2015,08,28,15,35,17.30
2015,08,28,15,36,17.20
2015,08,28,15,37,17.20
2015,08,28,15,38,17.20
2015,08,28,15,39,17.20
2015,08,28,15,40,17.20
2015,08,28,15,41,17.20
2015,08,28,15,42,17.30
2015,08,28,15,43,17.30
2015,08,28,15,44,17.40
2015,08,28,15,45,17.40
2015,08,28,15,46,17.40
2015,08,28,15,47,17.50
2015,08,28,15,48,17.50
2015,08,28,15,49,17.50
2015,08,28,15,50,17.50
2015,08,28,15,51,17.50
2015,08,28,15,52,17.50
2015,08,28,15,53,17.40
2015,08,28,15,54,17.40
2015,08,28,15,55,17.50
2015,08,28,15,56,17.60
2015,08,28,15,57,17.60
2015,08,28,15,58,17.70
2015,08,28,15,59,17.70
2015,08,28,16,00,17.70
2015,08,28,16,01,17.70
2015,08,28,16,02,17.70
2015,08,28,16,03,17.70
2015,08,28,16,04,17.70
2015,08,28,16,05,17.70
2015,08,28,16,06,17.60
2015,08,28,16,07,17.60
2015,08,28,16,08,17.60
2015,08,28,16,09,17.60
2015,08,28,16,10,17.60
2015,08,28,16,11,17.60
2015,08,28,16,12,17.60
2015,08,28,16,13,17.60
2015,08,28,16,14,17.60
2015,08,28,16,15,17.60
2015,08,28,16,16,17.60
2015,08,28,16,17,17.60
2015,08,28,16,18,17.60
2015,08,28,16,19,17.60
2015,08,28,16,20,17.60
2015,08,28,16,21,17.60
2015,08,28,16,22,17.60
2015,08,28,16,23,17.60
2015,08,28,16,24,17.60
2015,08,28,16,25,17.60
2015,08,28,16,26,17.60
2015,08,28,16,27,17.60
2015,08,28,16,28,17.60
2015,08,28,16,29,17.50
2015,08,28,16,30,17.50
2015,08,28,16,31,17.50
2015,08,28,16,32,17.50
2015,08,28,16,33,17.50
2015,08,28,16,34,17.60
2015,08,28,16,35,17.60
2015,08,28,16,36,17.70
2015,08,28,16,37,17.70
2015,08,28,16,38,17.80
2015,08,28,16,39,17.80
2015,08,28,16,40,17.80
2015,08,28,16,41,17.90
2015,08,28,16,42,17.90
2015,08,28,16,43,17.90
2015,08,28,16,44,17.90
2015,08,28,16,45,17.90
2015,08,28,16,46,17.90
2015,08,28,16,47,17.90
2015,08,28,16,48,17.90
2015,08,28,16,49,17.90
2015,08,28,16,50,18.00
2015,08,28,16,51,18.00
2015,08,28,16,52,17.90
2015,08,28,16,53,17.90
2015,08,28,16,54,18.00
2015,08,28,16,55,18.00
2015,08,28,16,56,18.10
2015,08,28,16,57,18.10
2015,08,28,16,58,18.20
2015,08,28,16,59,18.20
2015,08,28,17,00,18.20
2015,08,28,17,01,18.20
2015,08,28,17,02,18.20
2015,08,28,17,03,18.20
2015,08,28,17,04,18.10
2015,08,28,17,05,18.10
2015,08,28,17,06,18.00
2015,08,28,17,07,18.00
2015,08,28,17,08,18.00
2015,08,28,17,09,18.00
2015,08,28,17,10,18.10
2015,08,28,17,11,18.10
2015,08,28,17,12,18.10
2015,08,28,17,13,18.10
2015,08,28,17,14,18.20
2015,08,28,17,15,18.20
2015,08,28,17,16,18.30
2015,08,28,17,17,18.30
2015,08,28,17,18,18.20
2015,08,28,17,19,18.20